contact:dominique.lefevre@mio.osupytheas.fr, maurice.libes@osupytheas.fr, didier.mallarino@osupytheas.fr
Project:EMSO http://www.emso-fr.org/EMSO-France
Depth: 2436.0 m
Title:EMSO Ligure Ouest : Data MII capteur AQUADOPP
Date,Latitude,Longitude,X_East,Y_North,Z_Up,Amplitude_X,Amplitude_Y,Amplitude_Z,Batterie,SoundSpeed,Heading,Pitch,Roll,Pressure,TIS,Speed,Direction
, degrees North, degrees East, m.s-1, m.s-1,m.s-1, 1, 1, 1, Volt, m.s-1, degree, degree, degree, dbar, degree_C, m.s-1, degree
2023-07-07T00:04:03,42.805,6.029,0.057,-0.035,-0.024,101.0,101.0,101.0,13.4,1505.2,347.8,-0.8,1.8,2471.568,13.28,0.066,121.6
2023-07-07T00:07:03,42.805,6.029,0.053,-0.007,-0.002,100.0,103.0,101.0,13.4,1505.2,324.0,-0.8,1.8,2471.624,13.28,0.053,97.5
2023-07-07T00:10:03,42.805,6.029,0.051,-0.016,-0.006,101.0,101.0,100.0,13.4,1505.2,329.8,-0.8,1.8,2471.624,13.28,0.053,107.4
2023-07-07T00:13:03,42.805,6.029,0.013,-0.029,-0.053,101.0,102.0,100.0,13.4,1505.2,351.4,-0.8,1.8,2471.598,13.29,0.031,155.9
2023-07-07T00:16:03,42.805,6.029,0.049,-0.01,0.004,102.0,101.0,100.0,13.4,1505.2,328.1,-0.7,1.8,2471.573,13.29,0.05,101.5
2023-07-07T00:19:03,42.805,6.029,0.007,-0.013,0.0,101.0,102.0,101.0,13.3,1505.2,350.5,-0.8,1.8,2471.544,13.29,0.014,151.7
2023-07-07T00:22:03,42.805,6.029,0.025,0.001,0.002,102.0,103.0,100.0,13.4,1505.2,329.8,-0.8,1.8,2471.556,13.29,0.025,87.7
2023-07-07T00:25:03,42.805,6.029,0.026,-0.007,-0.023,101.0,103.0,101.0,13.4,1505.2,332.5,-0.8,1.8,2471.572,13.29,0.026,105.1
2023-07-07T00:28:03,42.805,6.029,0.038,-0.041,-0.038,101.0,101.0,101.0,13.4,1505.2,346.8,-0.8,1.8,2471.532,13.29,0.055,137.2
2023-07-07T00:31:03,42.805,6.029,0.017,0.013,-0.024,102.0,102.0,100.0,13.4,1505.2,323.4,-0.8,1.8,2471.518,13.29,0.021,52.6
2023-07-07T00:34:03,42.805,6.029,0.015,-0.005,-0.028,102.0,102.0,101.0,13.3,1505.2,323.8,-0.7,1.8,2471.521,13.29,0.015,108.4
2023-07-07T00:37:03,42.805,6.029,0.03,-0.003,-0.014,101.0,101.0,101.0,13.4,1505.2,339.1,-0.8,1.8,2471.505,13.29,0.03,95.7
2023-07-07T00:40:03,42.805,6.029,0.035,-0.04,-0.038,101.0,102.0,100.0,13.4,1505.2,349.1,-0.7,1.8,2471.544,13.29,0.053,138.8
2023-07-07T00:43:03,42.805,6.029,0.03,-0.01,-0.028,103.0,101.0,100.0,13.4,1505.2,330.7,-0.8,1.8,2471.515,13.29,0.031,108.4
2023-07-07T00:46:03,42.805,6.029,0.057,-0.02,0.003,99.0,102.0,101.0,13.3,1505.2,343.7,-0.8,1.8,2471.49,13.29,0.06,109.3
2023-07-07T00:49:03,42.805,6.029,0.043,-0.019,-0.007,102.0,101.0,102.0,13.3,1505.2,344.0,-0.8,1.8,2471.498,13.29,0.047,113.8
2023-07-07T00:52:03,42.805,6.029,0.046,-0.027,0.0,100.0,101.0,101.0,13.3,1505.2,342.1,-0.7,1.8,2471.5,13.29,0.053,120.4
2023-07-07T00:55:03,42.805,6.029,0.023,-0.03,-0.038,103.0,101.0,101.0,13.4,1505.2,349.3,-0.8,1.8,2471.49,13.29,0.037,142.5
2023-07-07T00:58:03,42.805,6.029,0.057,-0.032,-0.028,102.0,99.0,100.0,13.4,1505.2,330.6,-0.8,1.8,2471.499,13.29,0.065,119.3
2023-07-07T01:04:03,42.805,6.029,0.027,-0.014,-0.026,104.0,102.0,102.0,13.4,1505.2,342.7,-0.8,1.8,2471.528,13.28,0.03,117.4
2023-07-07T01:07:03,42.805,6.029,0.02,0.014,-0.029,101.0,101.0,101.0,13.3,1505.2,325.2,-0.7,1.8,2471.52,13.28,0.024,55.0
2023-07-07T01:10:03,42.805,6.029,0.029,-0.009,-0.031,102.0,102.0,101.0,13.4,1505.2,333.9,-0.8,1.8,2471.514,13.29,0.03,107.2
2023-07-07T01:13:03,42.805,6.029,0.024,-0.025,-0.045,102.0,102.0,100.0,13.4,1505.2,342.6,-0.8,1.8,2471.559,13.29,0.034,136.2
2023-07-07T01:16:03,42.805,6.029,0.044,-0.023,-0.008,102.0,101.0,101.0,13.4,1505.2,342.5,-0.8,1.8,2471.505,13.29,0.049,117.6
2023-07-07T01:19:03,42.805,6.029,0.037,0.0,-0.038,103.0,101.0,100.0,13.4,1505.2,334.9,-0.8,1.8,2471.498,13.29,0.037,90.0
2023-07-07T01:22:03,42.805,6.029,0.02,0.009,-0.035,102.0,102.0,101.0,13.4,1505.2,343.9,-0.8,1.8,2471.464,13.29,0.021,65.8
2023-07-07T01:25:03,42.805,6.029,0.009,-0.025,-0.054,101.0,102.0,100.0,13.4,1505.2,321.1,-0.8,1.8,2471.46,13.29,0.026,160.2
2023-07-07T01:28:03,42.805,6.029,0.017,0.007,-0.027,101.0,101.0,101.0,13.3,1505.2,333.4,-0.8,1.8,2471.515,13.29,0.018,67.6
2023-07-07T01:31:03,42.805,6.029,0.04,-0.02,-0.023,102.0,103.0,99.0,13.3,1505.2,352.0,-0.8,1.8,2471.473,13.29,0.044,116.6
2023-07-07T01:34:03,42.805,6.029,0.016,-0.01,-0.056,101.0,101.0,102.0,13.3,1505.2,321.6,-0.8,1.8,2471.444,13.29,0.018,122.0
2023-07-07T01:43:03,42.805,6.029,0.016,0.01,-0.028,101.0,103.0,101.0,13.4,1505.2,321.0,-0.7,1.8,2471.545,13.28,0.018,58.0
2023-07-07T01:46:03,42.805,6.029,0.036,-0.01,-0.013,103.0,101.0,101.0,13.4,1505.2,335.0,-0.8,1.8,2471.498,13.28,0.037,105.5
2023-07-07T01:49:03,42.805,6.029,0.029,0.001,-0.016,100.0,101.0,102.0,13.3,1505.2,347.8,-0.8,1.8,2471.468,13.29,0.029,88.0
2023-07-07T01:52:03,42.805,6.029,0.047,-0.005,-0.037,101.0,101.0,101.0,13.4,1505.2,327.2,-0.8,1.8,2471.462,13.29,0.047,96.1
2023-07-07T01:55:03,42.805,6.029,0.037,-0.03,-0.011,101.0,101.0,101.0,13.4,1505.2,346.5,-0.7,1.8,2471.486,13.29,0.047,129.0
2023-07-07T01:58:03,42.805,6.029,0.037,0.013,-0.001,101.0,102.0,100.0,13.4,1505.2,321.0,-0.8,1.9,2471.476,13.29,0.039,70.6
2023-07-07T02:04:03,42.805,6.029,0.017,-0.011,-0.035,101.0,101.0,101.0,13.4,1505.2,340.2,-0.8,1.8,2471.493,13.28,0.02,122.9
2023-07-07T02:07:03,42.805,6.029,0.01,-0.016,-0.058,102.0,100.0,101.0,13.4,1505.2,345.6,-0.8,1.8,2471.432,13.28,0.018,148.0
2023-07-07T02:10:03,42.805,6.029,0.036,0.006,-0.004,102.0,100.0,100.0,13.3,1505.2,330.2,-0.7,1.8,2471.455,13.29,0.036,80.5
2023-07-07T02:13:03,42.805,6.029,0.03,0.023,0.04,102.0,99.0,100.0,13.3,1505.2,332.1,-0.8,1.8,2471.451,13.29,0.037,52.5
2023-07-07T02:16:03,42.805,6.029,0.041,0.02,0.018,102.0,100.0,101.0,13.3,1505.2,335.0,-0.7,1.8,2471.443,13.29,0.045,64.0
2023-07-07T02:19:03,42.805,6.029,0.015,-0.019,-0.087,102.0,101.0,100.0,13.4,1505.2,329.0,-0.7,1.8,2471.458,13.29,0.024,141.7
2023-07-07T02:22:03,42.805,6.029,0.03,-0.048,-0.024,101.0,101.0,101.0,13.3,1505.2,352.1,-0.8,1.8,2471.443,13.29,0.056,148.0
2023-07-07T02:25:03,42.805,6.029,0.034,0.007,-0.022,101.0,103.0,101.0,13.4,1505.2,322.4,-0.8,1.8,2471.443,13.29,0.034,78.4
2023-07-07T02:28:03,42.805,6.029,0.036,-0.013,-0.047,101.0,102.0,101.0,13.4,1505.2,337.8,-0.8,1.8,2471.468,13.29,0.038,109.9
2023-07-07T02:31:03,42.805,6.029,0.031,-0.002,0.006,102.0,102.0,100.0,13.4,1505.2,330.3,-0.8,1.8,2471.458,13.29,0.031,93.7
2023-07-07T02:34:03,42.805,6.029,0.039,-0.007,-0.015,100.0,103.0,101.0,13.4,1505.2,348.6,-0.7,1.8,2471.414,13.29,0.039,100.2
2023-07-07T02:37:03,42.805,6.029,0.041,-0.025,-0.04,101.0,100.0,101.0,13.4,1505.2,344.8,-0.8,1.8,2471.394,13.29,0.048,121.4
2023-07-07T02:40:03,42.805,6.029,0.023,-0.015,-0.024,101.0,101.0,101.0,13.4,1505.2,347.6,-0.8,1.8,2471.394,13.29,0.027,123.1
2023-07-07T02:43:03,42.805,6.029,0.03,-0.015,-0.032,101.0,101.0,101.0,13.3,1505.2,324.2,-0.8,1.8,2471.421,13.29,0.033,116.6
2023-07-07T02:46:03,42.805,6.029,0.043,-0.007,-0.009,100.0,100.0,101.0,13.3,1505.2,342.2,-0.8,1.8,2471.399,13.29,0.043,99.2
2023-07-07T02:49:03,42.805,6.029,0.033,-0.025,-0.055,103.0,101.0,99.0,13.4,1505.2,339.7,-0.8,1.8,2471.421,13.29,0.041,127.1
2023-07-07T02:52:03,42.805,6.029,0.023,-0.023,-0.07,101.0,101.0,101.0,13.3,1505.2,332.1,-0.8,1.8,2471.431,13.29,0.032,135.0
2023-07-07T02:55:03,42.805,6.029,0.049,0.0,-0.015,102.0,101.0,100.0,13.4,1505.2,335.7,-0.8,1.8,2471.392,13.29,0.049,90.0
2023-07-07T02:58:03,42.805,6.029,0.044,0.003,-0.015,101.0,102.0,101.0,13.4,1505.2,331.6,-0.7,1.8,2471.384,13.29,0.044,86.1
2023-07-07T03:04:03,42.805,6.029,0.013,0.008,-0.058,101.0,101.0,100.0,13.4,1505.2,331.1,-0.8,1.8,2471.439,13.28,0.015,58.4
2023-07-07T03:07:03,42.805,6.029,0.045,-0.004,-0.022,101.0,102.0,101.0,13.4,1505.2,350.3,-0.7,1.8,2471.46,13.28,0.045,95.1
2023-07-07T03:10:03,42.805,6.029,0.032,0.002,-0.045,101.0,102.0,100.0,13.3,1505.2,321.4,-0.7,1.8,2471.413,13.29,0.032,86.4
2023-07-07T03:13:03,42.805,6.029,0.012,-0.002,-0.016,99.0,102.0,102.0,13.4,1505.2,343.0,-0.8,1.8,2471.451,13.29,0.012,99.5
2023-07-07T03:16:03,42.805,6.029,0.035,-0.01,-0.036,102.0,101.0,101.0,13.4,1505.2,331.7,-0.7,1.8,2471.399,13.29,0.036,105.9
2023-07-07T03:19:03,42.805,6.029,0.034,0.006,-0.037,102.0,102.0,100.0,13.4,1505.2,340.4,-0.7,1.8,2471.379,13.29,0.034,80.0
2023-07-07T03:22:03,42.805,6.029,0.025,-0.024,0.0,103.0,101.0,101.0,13.4,1505.2,344.2,-0.8,1.8,2471.388,13.29,0.034,133.8
2023-07-07T03:25:03,42.805,6.029,0.021,-0.01,-0.048,101.0,107.0,101.0,13.4,1505.2,326.3,-0.8,1.8,2471.387,13.29,0.023,115.5
2023-07-07T03:28:03,42.805,6.029,0.044,0.0,-0.035,102.0,103.0,101.0,13.4,1505.2,345.6,-0.7,1.8,2471.388,13.29,0.044,90.0
2023-07-07T03:31:03,42.805,6.029,0.042,-0.026,-0.036,102.0,102.0,102.0,13.3,1505.2,341.5,-0.8,1.8,2471.396,13.29,0.049,121.8
2023-07-07T03:34:03,42.805,6.029,0.05,0.008,-0.025,102.0,103.0,101.0,13.3,1505.2,327.8,-0.7,1.8,2471.404,13.29,0.05,80.9
2023-07-07T03:37:03,42.805,6.029,0.029,0.011,0.016,101.0,102.0,101.0,13.4,1505.2,335.8,-0.8,1.8,2471.342,13.29,0.031,69.2
2023-07-07T03:40:03,42.805,6.029,0.037,-0.012,0.002,104.0,105.0,101.0,13.4,1505.2,346.2,-0.8,1.8,2471.372,13.29,0.038,108.0
2023-07-07T03:43:03,42.805,6.029,0.027,0.018,-0.04,101.0,103.0,101.0,13.3,1505.2,323.5,-0.8,1.8,2471.387,13.29,0.032,56.3
2023-07-07T03:46:03,42.805,6.029,0.028,-0.002,-0.021,102.0,103.0,101.0,13.4,1505.2,330.7,-0.8,1.8,2471.388,13.29,0.028,94.1
2023-07-07T03:49:03,42.805,6.029,0.013,-0.017,-0.036,102.0,102.0,102.0,13.4,1505.2,349.3,-0.8,1.8,2471.364,13.29,0.021,142.6
2023-07-07T03:52:03,42.805,6.029,0.014,-0.003,-0.017,102.0,103.0,101.0,13.4,1505.2,344.0,-0.8,1.8,2471.369,13.29,0.014,102.1
2023-07-07T03:55:03,42.805,6.029,0.035,-0.006,-0.008,101.0,103.0,101.0,13.3,1505.2,338.9,-0.8,1.8,2471.387,13.29,0.035,99.7
2023-07-07T03:58:03,42.805,6.029,0.031,0.001,0.017,102.0,103.0,101.0,13.4,1505.2,328.3,-0.8,1.8,2471.369,13.29,0.031,88.2
2023-07-07T04:04:03,42.805,6.029,0.004,0.011,-0.038,101.0,103.0,101.0,13.4,1505.2,323.1,-0.8,1.8,2471.407,13.28,0.011,20.0
2023-07-07T04:07:03,42.805,6.029,0.04,-0.009,-0.032,102.0,104.0,101.0,13.3,1505.2,326.5,-0.8,1.8,2471.399,13.28,0.041,102.7
2023-07-07T04:10:03,42.805,6.029,0.017,-0.02,-0.044,101.0,104.0,100.0,13.3,1505.2,348.9,-0.8,1.8,2471.36,13.29,0.026,139.6
2023-07-07T04:13:03,42.805,6.029,0.0,0.007,-0.03,102.0,103.0,101.0,13.4,1505.2,326.3,-0.7,1.8,2471.433,13.29,0.007,0.0
2023-07-07T04:16:03,42.805,6.029,0.031,-0.043,-0.026,101.0,103.0,101.0,13.4,1505.2,342.7,-0.7,1.8,2471.367,13.29,0.053,144.2
2023-07-07T04:19:03,42.805,6.029,0.015,-0.043,-0.073,101.0,102.0,101.0,13.4,1505.2,350.9,-0.8,1.8,2471.368,13.29,0.045,160.8
2023-07-07T04:22:03,42.805,6.029,0.02,0.023,-0.016,101.0,102.0,101.0,13.4,1505.2,321.0,-0.8,1.8,2471.353,13.29,0.03,41.0
2023-07-07T04:25:03,42.805,6.029,0.035,0.002,0.006,101.0,104.0,101.0,13.4,1505.2,330.1,-0.8,1.8,2471.358,13.29,0.035,86.7
2023-07-07T04:28:03,42.805,6.029,0.006,-0.018,-0.039,102.0,104.0,101.0,13.4,1505.2,335.4,-0.7,1.9,2471.331,13.29,0.018,161.6
2023-07-07T04:31:03,42.805,6.029,-0.002,0.004,-0.039,103.0,102.0,100.0,13.4,1505.2,343.9,-0.8,1.8,2471.334,13.29,0.004,333.4
2023-07-07T04:34:03,42.805,6.029,0.028,-0.003,-0.044,101.0,102.0,101.0,13.4,1505.2,351.8,-0.8,1.8,2471.392,13.29,0.028,96.1
2023-07-07T04:37:03,42.805,6.029,0.052,0.006,-0.03,102.0,101.0,100.0,13.3,1505.2,321.3,-0.7,1.8,2471.376,13.29,0.052,83.4
2023-07-07T04:40:03,42.805,6.029,0.013,-0.003,-0.031,100.0,102.0,101.0,13.3,1505.2,340.7,-0.8,1.8,2471.351,13.29,0.013,103.0
2023-07-07T04:43:03,42.805,6.029,0.016,-0.007,-0.024,103.0,101.0,101.0,13.4,1505.2,348.9,-0.8,1.8,2471.348,13.29,0.017,113.6
2023-07-07T04:46:03,42.805,6.029,0.036,0.015,-0.008,100.0,102.0,102.0,13.3,1505.2,323.8,-0.7,1.8,2471.311,13.29,0.039,67.4
2023-07-07T04:49:03,42.805,6.029,0.03,-0.019,-0.048,101.0,101.0,102.0,13.4,1505.2,345.1,-0.8,1.8,2471.344,13.29,0.035,122.3
2023-07-07T04:52:03,42.805,6.029,0.022,0.017,-0.021,102.0,103.0,100.0,13.3,1505.2,334.3,-0.8,1.8,2471.315,13.29,0.027,52.3
2023-07-07T04:55:03,42.805,6.029,0.046,-0.039,-0.072,101.0,103.0,101.0,13.3,1505.2,337.2,-0.8,1.8,2471.328,13.29,0.06,130.3
2023-07-07T04:58:03,42.805,6.029,0.011,-0.008,-0.054,101.0,103.0,101.0,13.3,1505.2,321.9,-0.8,1.8,2471.314,13.29,0.013,126.0
2023-07-07T05:04:03,42.805,6.029,0.035,-0.02,-0.067,102.0,102.0,102.0,13.4,1505.2,324.7,-0.7,1.8,2471.355,13.28,0.04,119.7
2023-07-07T05:07:03,42.805,6.029,0.034,0.002,-0.005,102.0,103.0,101.0,13.3,1505.2,335.6,-0.8,1.8,2471.376,13.28,0.034,86.6
2023-07-07T05:10:03,42.805,6.029,0.019,0.037,0.007,102.0,102.0,102.0,13.4,1505.2,350.3,-0.8,1.8,2471.348,13.29,0.041,27.2
2023-07-07T05:13:03,42.805,6.029,0.007,-0.012,-0.059,102.0,102.0,101.0,13.4,1505.2,324.9,-0.7,1.8,2471.361,13.29,0.013,149.7
2023-07-07T05:16:03,42.805,6.029,0.048,0.004,-0.016,100.0,103.0,101.0,13.4,1505.2,332.1,-0.8,1.8,2471.399,13.29,0.048,85.2
2023-07-07T05:19:03,42.805,6.029,0.024,-0.017,-0.023,103.0,101.0,102.0,13.4,1505.2,343.9,-0.8,1.8,2471.339,13.29,0.029,125.3
2023-07-07T05:22:03,42.805,6.029,0.03,-0.012,-0.027,101.0,102.0,101.0,13.4,1505.2,350.7,-0.8,1.8,2471.339,13.29,0.032,111.8
2023-07-07T05:25:03,42.805,6.029,0.034,-0.032,-0.067,101.0,101.0,102.0,13.3,1505.2,342.5,-0.8,1.8,2471.374,13.29,0.046,133.3
2023-07-07T05:28:03,42.805,6.029,0.025,-0.01,-0.019,101.0,101.0,102.0,13.4,1505.2,348.9,-0.8,1.8,2471.336,13.29,0.026,111.8
2023-07-07T05:31:03,42.805,6.029,0.03,-0.028,-0.06,101.0,102.0,102.0,13.4,1505.2,323.7,-0.8,1.8,2471.37,13.29,0.041,133.0
2023-07-07T05:34:03,42.805,6.029,0.042,-0.014,-0.03,102.0,102.0,101.0,13.4,1505.2,341.1,-0.8,1.8,2471.343,13.29,0.044,108.4
2023-07-07T05:37:03,42.805,6.029,0.016,-0.001,-0.016,102.0,102.0,101.0,13.4,1505.2,349.1,-0.8,1.8,2471.324,13.29,0.016,93.6
2023-07-07T05:40:03,42.805,6.029,0.008,0.005,-0.023,101.0,102.0,102.0,13.4,1505.2,325.0,-0.8,1.8,2471.36,13.29,0.009,58.0
2023-07-07T05:43:03,42.805,6.029,0.026,0.007,-0.02,102.0,101.0,102.0,13.4,1505.2,353.4,-0.7,1.8,2471.344,13.29,0.026,74.9
2023-07-07T05:46:03,42.805,6.029,0.029,-0.021,-0.063,102.0,102.0,102.0,13.4,1505.2,339.8,-0.8,1.8,2471.356,13.29,0.035,125.9
2023-07-07T05:49:03,42.805,6.029,0.012,-0.006,-0.024,101.0,103.0,101.0,13.4,1505.2,328.6,-0.7,1.9,2471.336,13.29,0.013,116.6
2023-07-07T05:52:03,42.805,6.029,0.032,-0.001,-0.021,103.0,101.0,101.0,13.4,1505.2,353.4,-0.8,1.8,2471.321,13.29,0.032,91.8
2023-07-07T05:55:03,42.805,6.029,0.031,-0.01,-0.036,102.0,103.0,101.0,13.4,1505.2,326.0,-0.8,1.8,2471.374,13.29,0.032,107.9
2023-07-07T05:58:03,42.805,6.029,0.0,-0.009,-0.022,101.0,103.0,101.0,13.4,1505.2,353.2,-0.8,1.8,2471.35,13.29,0.009,180.0
2023-07-07T06:04:03,42.805,6.029,0.001,0.016,-0.018,101.0,102.0,101.0,13.4,1505.2,351.4,-0.7,1.8,2471.415,13.28,0.016,3.6
2023-07-07T06:07:03,42.805,6.029,0.025,-0.007,-0.026,101.0,103.0,101.0,13.4,1505.2,341.2,-0.8,1.8,2471.412,13.28,0.025,105.6
2023-07-07T06:10:03,42.805,6.029,0.046,-0.021,-0.031,101.0,104.0,101.0,13.4,1505.2,348.4,-0.8,1.8,2471.401,13.29,0.05,114.5
2023-07-07T06:13:03,42.805,6.029,0.036,-0.009,-0.023,99.0,104.0,102.0,13.3,1505.2,339.7,-0.8,1.8,2471.389,13.29,0.037,104.0
2023-07-07T06:16:03,42.805,6.029,0.04,0.007,-0.003,102.0,103.0,100.0,13.4,1505.2,331.6,-0.8,1.8,2471.391,13.29,0.04,80.1
2023-07-07T06:19:03,42.805,6.029,0.022,0.005,-0.004,101.0,107.0,100.0,13.3,1505.2,335.2,-0.8,1.9,2471.392,13.29,0.022,77.2
2023-07-07T06:22:03,42.805,6.029,0.017,0.001,-0.064,102.0,101.0,100.0,13.4,1505.2,340.4,-0.8,1.8,2471.383,13.29,0.017,86.6
2023-07-07T06:25:03,42.805,6.029,0.032,-0.003,-0.029,101.0,102.0,101.0,13.3,1505.2,320.9,-0.8,1.8,2471.362,13.29,0.032,95.4
2023-07-07T06:28:03,42.805,6.029,0.042,-0.014,-0.033,101.0,102.0,101.0,13.3,1505.2,326.0,-0.8,1.8,2471.4,13.29,0.044,108.4
2023-07-07T06:31:03,42.805,6.029,0.056,-0.015,-0.015,102.0,102.0,101.0,13.3,1505.2,339.3,-0.8,1.8,2471.341,13.29,0.057,105.0
2023-07-07T06:34:03,42.805,6.029,0.027,-0.003,-0.037,101.0,103.0,100.0,13.4,1505.2,337.2,-0.8,1.8,2471.403,13.29,0.027,96.3
2023-07-07T06:37:03,42.805,6.029,0.038,-0.021,-0.024,102.0,103.0,101.0,13.4,1505.2,340.1,-0.7,1.8,2471.357,13.29,0.043,118.9
2023-07-07T06:40:03,42.805,6.029,0.027,-0.019,-0.076,101.0,102.0,101.0,13.3,1505.2,341.1,-0.7,1.8,2471.335,13.29,0.033,125.1
2023-07-07T06:43:03,42.805,6.029,0.083,0.018,0.005,101.0,103.0,101.0,13.3,1505.2,324.2,-0.8,1.8,2471.369,13.29,0.084,77.8
2023-07-07T06:46:03,42.805,6.029,0.044,-0.011,-0.004,102.0,104.0,101.0,13.3,1505.2,334.2,-0.7,1.8,2471.387,13.29,0.045,104.0
2023-07-07T06:49:03,42.805,6.029,0.037,-0.018,-0.043,101.0,103.0,101.0,13.4,1505.2,334.2,-0.8,1.8,2471.367,13.29,0.041,115.9
2023-07-07T06:52:03,42.805,6.029,0.037,-0.006,-0.027,102.0,102.0,101.0,13.4,1505.2,338.8,-0.7,1.8,2471.35,13.29,0.037,99.2
2023-07-07T06:55:03,42.805,6.029,0.021,0.004,-0.039,101.0,103.0,100.0,13.4,1505.2,331.3,-0.8,1.8,2471.354,13.29,0.021,79.2
2023-07-07T06:58:03,42.805,6.029,0.033,0.005,-0.009,102.0,102.0,101.0,13.4,1505.2,320.5,-0.8,1.8,2471.373,13.29,0.033,81.4
2023-07-07T07:04:03,42.805,6.029,0.023,0.002,-0.023,102.0,103.0,101.0,13.3,1505.2,330.2,-0.8,1.8,2471.402,13.28,0.023,85.0
2023-07-07T07:07:03,42.805,6.029,0.05,-0.012,-0.013,102.0,102.0,101.0,13.4,1505.2,331.9,-0.8,1.8,2471.461,13.28,0.051,103.5
2023-07-07T07:10:03,42.805,6.029,0.032,-0.012,-0.043,101.0,103.0,102.0,13.3,1505.2,320.4,-0.8,1.8,2471.406,13.29,0.034,110.6
2023-07-07T07:13:03,42.805,6.029,0.043,-0.018,0.0,101.0,103.0,101.0,13.3,1505.2,344.3,-0.7,1.8,2471.404,13.29,0.046,112.7
2023-07-07T07:16:03,42.805,6.029,0.031,0.008,-0.016,101.0,102.0,102.0,13.3,1505.2,329.8,-0.8,1.8,2471.418,13.29,0.032,75.5
2023-07-07T07:19:03,42.805,6.029,0.043,-0.013,-0.033,101.0,102.0,103.0,13.4,1505.2,336.0,-0.8,1.8,2471.415,13.29,0.044,106.8
2023-07-07T07:22:03,42.805,6.029,0.03,-0.012,-0.061,101.0,104.0,100.0,13.3,1505.2,321.0,-0.7,1.8,2471.414,13.29,0.032,111.8
2023-07-07T07:25:03,42.805,6.029,0.042,-0.008,-0.013,101.0,105.0,100.0,13.4,1505.2,330.3,-0.8,1.8,2471.402,13.29,0.042,100.8
2023-07-07T07:28:03,42.805,6.029,0.029,-0.02,-0.034,100.0,102.0,101.0,13.4,1505.2,338.5,-0.8,1.8,2471.408,13.29,0.035,124.6
2023-07-07T07:31:03,42.805,6.029,0.038,-0.042,-0.054,101.0,104.0,100.0,13.3,1505.2,338.0,-0.8,1.8,2471.395,13.29,0.056,137.9
2023-07-07T07:34:03,42.805,6.029,0.051,-0.013,-0.04,102.0,102.0,99.0,13.3,1505.2,333.4,-0.8,1.8,2471.391,13.29,0.052,104.3
2023-07-07T07:37:03,42.805,6.029,0.009,0.002,-0.04,102.0,103.0,100.0,13.4,1505.2,350.9,-0.7,1.8,2471.412,13.29,0.009,77.5
2023-07-07T07:40:03,42.805,6.029,0.029,0.002,-0.047,101.0,103.0,101.0,13.4,1505.2,334.4,-0.7,1.8,2471.444,13.29,0.029,86.1
2023-07-07T07:43:03,42.805,6.029,0.037,-0.012,-0.041,102.0,103.0,101.0,13.4,1505.2,333.8,-0.8,1.8,2471.417,13.29,0.038,108.0
2023-07-07T07:46:03,42.805,6.029,0.021,-0.017,-0.064,101.0,103.0,101.0,13.3,1505.2,347.4,-0.8,1.8,2471.409,13.29,0.027,129.0
2023-07-07T07:49:03,42.805,6.029,0.065,-0.011,-0.003,100.0,103.0,101.0,13.4,1505.2,326.6,-0.8,1.8,2471.474,13.29,0.065,99.6
2023-07-07T07:52:03,42.805,6.029,0.033,0.002,-0.033,101.0,103.0,102.0,13.4,1505.2,350.3,-0.8,1.8,2471.375,13.29,0.033,86.5
2023-07-07T07:55:03,42.805,6.029,0.054,0.001,-0.024,101.0,102.0,101.0,13.3,1505.2,322.4,-0.8,1.8,2471.471,13.29,0.054,88.9
2023-07-07T07:58:03,42.805,6.029,0.049,-0.005,-0.037,101.0,102.0,101.0,13.3,1505.2,327.6,-0.8,1.8,2471.444,13.29,0.049,95.8
2023-07-07T08:04:03,42.805,6.029,0.052,-0.017,-0.028,101.0,102.0,100.0,13.3,1505.2,326.5,-0.8,1.8,2471.429,13.28,0.054,108.1
2023-07-07T08:07:03,42.805,6.029,0.026,-0.003,-0.031,102.0,103.0,101.0,13.3,1505.2,342.3,-0.7,1.8,2471.454,13.28,0.026,96.6
2023-07-07T08:10:03,42.805,6.029,0.024,-0.004,-0.027,101.0,102.0,102.0,13.3,1505.2,347.4,-0.7,1.8,2471.455,13.28,0.024,99.5
2023-07-07T08:13:03,42.805,6.029,0.036,-0.008,-0.027,101.0,102.0,100.0,13.4,1505.2,347.9,-0.8,1.8,2471.438,13.29,0.036,102.5
2023-07-07T08:16:03,42.805,6.029,0.062,0.008,-0.022,101.0,101.0,100.0,13.4,1505.2,320.9,-0.7,1.8,2471.464,13.29,0.062,82.7
2023-07-07T08:19:03,42.805,6.029,0.069,-0.025,0.005,101.0,102.0,102.0,13.4,1505.2,336.0,-0.7,1.8,2471.435,13.29,0.073,109.9
2023-07-07T08:22:03,42.805,6.029,0.047,0.004,0.023,103.0,101.0,100.0,13.3,1505.2,328.6,-0.8,1.8,2471.444,13.29,0.047,85.1
2023-07-07T08:25:03,42.805,6.029,0.039,-0.005,-0.002,101.0,104.0,101.0,13.4,1505.2,328.0,-0.7,1.8,2471.428,13.29,0.039,97.3
2023-07-07T08:28:03,42.805,6.029,0.025,0.014,-0.001,101.0,103.0,101.0,13.4,1505.2,339.8,-0.8,1.8,2471.429,13.29,0.028,60.7
2023-07-07T08:31:03,42.805,6.029,0.041,-0.029,-0.025,101.0,102.0,100.0,13.3,1505.2,348.6,-0.7,1.8,2471.429,13.29,0.05,125.3
2023-07-07T08:34:03,42.805,6.029,0.049,-0.007,-0.016,102.0,101.0,101.0,13.4,1505.2,330.2,-0.8,1.8,2471.433,13.29,0.049,98.1
2023-07-07T08:37:03,42.805,6.029,0.033,0.007,0.011,101.0,102.0,101.0,13.4,1505.2,338.9,-0.8,1.8,2471.436,13.29,0.033,78.0
2023-07-07T08:40:03,42.805,6.029,0.056,-0.026,-0.032,101.0,102.0,102.0,13.4,1505.2,351.7,-0.8,1.8,2471.435,13.29,0.061,114.9
2023-07-07T08:43:03,42.805,6.029,0.044,0.01,-0.008,101.0,102.0,101.0,13.4,1505.2,329.0,-0.8,1.8,2471.447,13.29,0.045,77.2
2023-07-07T08:46:03,42.805,6.029,0.004,-0.023,-0.055,100.0,103.0,101.0,13.3,1505.2,331.3,-0.8,1.8,2471.444,13.29,0.023,170.1
2023-07-07T08:49:03,42.805,6.029,0.047,0.019,0.015,101.0,102.0,101.0,13.4,1505.2,338.4,-0.8,1.8,2471.434,13.29,0.05,68.0
2023-07-07T08:52:03,42.805,6.029,0.032,-0.014,-0.063,101.0,104.0,100.0,13.4,1505.2,341.9,-0.8,1.8,2471.407,13.29,0.034,113.6
2023-07-07T08:55:03,42.805,6.029,0.03,0.002,-0.009,101.0,102.0,101.0,13.4,1505.2,345.7,-0.7,1.8,2471.417,13.29,0.03,86.2
2023-07-07T08:58:03,42.805,6.029,0.058,0.02,0.013,101.0,103.0,100.0,13.4,1505.2,326.6,-0.8,1.8,2471.436,13.29,0.061,71.0
2023-07-07T09:04:03,42.805,6.029,0.04,-0.023,-0.051,101.0,102.0,100.0,13.3,1505.2,331.6,-0.8,1.8,2471.464,13.28,0.046,119.9
2023-07-07T09:07:03,42.805,6.029,0.046,0.001,-0.018,101.0,104.0,100.0,13.4,1505.2,334.5,-0.8,1.8,2471.474,13.28,0.046,88.8
2023-07-07T09:10:03,42.805,6.029,0.044,-0.041,-0.035,100.0,102.0,101.0,13.3,1505.2,350.5,-0.8,1.8,2471.487,13.28,0.06,133.0
2023-07-07T09:13:03,42.805,6.029,0.035,0.027,0.02,101.0,103.0,100.0,13.4,1505.2,328.2,-0.8,1.8,2471.459,13.29,0.044,52.3
2023-07-07T09:16:03,42.805,6.029,0.037,-0.023,-0.022,101.0,102.0,101.0,13.4,1505.2,330.2,-0.8,1.9,2471.44,13.29,0.043,121.9
2023-07-07T09:19:03,42.805,6.029,0.035,0.0,-0.026,101.0,103.0,99.0,13.3,1505.2,324.5,-0.8,1.8,2471.428,13.29,0.035,90.0
2023-07-07T09:22:03,42.805,6.029,0.037,-0.034,-0.037,100.0,103.0,100.0,13.4,1505.2,341.2,-0.8,1.8,2471.452,13.29,0.05,132.6
2023-07-07T09:25:03,42.805,6.029,0.033,-0.028,-0.022,102.0,101.0,99.0,13.4,1505.2,350.5,-0.7,1.8,2471.484,13.29,0.043,130.3
2023-07-07T09:28:03,42.805,6.029,0.021,0.034,0.0,101.0,102.0,100.0,13.4,1505.2,322.5,-0.8,1.8,2471.437,13.29,0.039,31.7
2023-07-07T09:31:03,42.805,6.029,0.033,-0.001,-0.02,100.0,101.0,101.0,13.4,1505.2,329.0,-0.8,1.8,2471.411,13.29,0.033,91.7
2023-07-07T09:34:03,42.805,6.029,0.012,-0.023,-0.059,100.0,102.0,101.0,13.3,1505.2,344.7,-0.8,1.8,2471.448,13.29,0.025,152.4
2023-07-07T09:37:03,42.805,6.029,0.037,-0.002,-0.016,101.0,101.0,100.0,13.4,1505.2,325.3,-0.8,1.8,2471.378,13.29,0.037,93.1
2023-07-07T09:40:03,42.805,6.029,0.047,-0.009,-0.013,100.0,102.0,100.0,13.4,1505.2,348.9,-0.7,1.8,2471.417,13.29,0.047,100.8
2023-07-07T09:43:03,42.805,6.029,0.027,-0.006,-0.045,100.0,102.0,101.0,13.4,1505.2,330.9,-0.8,1.8,2471.429,13.29,0.027,102.5
2023-07-07T09:46:03,42.805,6.029,0.047,-0.012,-0.026,102.0,103.0,100.0,13.3,1505.2,341.5,-0.8,1.8,2471.459,13.29,0.048,104.3
2023-07-07T09:49:03,42.805,6.029,0.029,-0.009,-0.034,101.0,101.0,102.0,13.4,1505.2,338.2,-0.7,1.8,2471.43,13.29,0.03,107.2
2023-07-07T09:52:03,42.805,6.029,0.02,0.016,-0.003,102.0,103.0,100.0,13.4,1505.2,343.6,-0.7,1.9,2471.438,13.29,0.025,51.3
2023-07-07T09:55:03,42.805,6.029,0.043,-0.016,-0.005,103.0,103.0,100.0,13.4,1505.2,343.1,-0.8,1.8,2471.404,13.29,0.045,110.4
2023-07-07T09:58:03,42.805,6.029,0.046,-0.037,-0.023,101.0,102.0,100.0,13.3,1505.2,338.9,-0.8,1.8,2471.418,13.29,0.059,128.8
2023-07-07T10:04:03,42.805,6.029,0.043,0.018,0.027,101.0,103.0,101.0,13.3,1505.2,328.4,-0.8,1.8,2471.482,13.28,0.046,67.3
2023-07-07T10:07:03,42.805,6.029,0.026,0.0,-0.049,102.0,104.0,101.0,13.3,1505.2,336.8,-0.7,1.8,2471.48,13.28,0.026,90.0